Time,TemperatureF,DewpointF,PressureIn,WindDirection,WindDirectionDegrees,WindSpeedMPH,WindSpeedGustMPH,Humidity,HourlyPrecipIn,Conditions,Clouds,dailyrainin,SoftwareType,DateUTC
2013-08-07 00:02:00,61.0,58.0,30.04,SW,224,0.0,0.0,90,0.00,,,0.00,Wunderground v.1.15,2013-08-07 04:02:00,
2013-08-07 00:04:00,61.0,58.0,30.04,SW,224,0.0,0.0,90,0.00,,,0.00,Wunderground v.1.15,2013-08-07 04:04:00,
2013-08-07 00:06:00,61.0,58.0,30.04,South,169,0.0,4.0,90,0.00,,,0.00,Wunderground v.1.15,2013-08-07 04:06:00,
2013-08-07 00:12:00,61.1,58.1,30.04,SE,141,0.0,0.0,90,0.00,,,0.00,Wunderground v.1.15,2013-08-07 04:12:00,
2013-08-07 00:18:00,61.0,58.0,30.03,SE,141,0.0,1.0,90,0.00,,,0.00,Wunderground v.1.15,2013-08-07 04:18:00,
2013-08-07 00:24:00,61.2,58.2,30.03,SE,145,0.0,0.0,90,0.00,,,0.00,Wunderground v.1.15,2013-08-07 04:24:00,
2013-08-07 00:28:00,61.3,58.3,30.03,SE,146,0.0,0.0,90,0.00,,,0.00,Wunderground v.1.15,2013-08-07 04:28:00,
2013-08-07 00:34:00,61.4,58.4,30.03,SE,146,0.0,0.0,90,0.00,,,0.00,Wunderground v.1.15,2013-08-07 04:34:00,
2013-08-07 00:40:00,61.4,58.4,30.03,SE,146,0.0,0.0,90,0.00,,,0.00,Wunderground v.1.15,2013-08-07 04:40:00,
2013-08-07 00:46:00,61.5,58.5,30.03,SE,146,0.0,0.0,90,0.00,,,0.00,Wunderground v.1.15,2013-08-07 04:46:00,
2013-08-07 00:52:00,61.6,58.6,30.03,SE,146,0.0,0.0,90,0.00,,,0.00,Wunderground v.1.15,2013-08-07 04:52:00,
2013-08-07 00:58:00,61.8,59.1,30.03,SE,146,0.0,0.0,91,0.00,,,0.00,Wunderground v.1.15,2013-08-07 04:58:00,
2013-08-07 01:04:00,62.0,59.0,30.03,SE,146,0.0,0.0,90,0.00,,,0.00,Wunderground v.1.15,2013-08-07 05:04:00,
2013-08-07 01:10:00,62.2,59.2,30.03,SE,146,0.0,0.0,90,0.00,,,0.00,Wunderground v.1.15,2013-08-07 05:10:00,
2013-08-07 01:16:00,62.5,59.5,30.03,SE,146,0.0,0.0,90,0.00,,,0.00,Wunderground v.1.15,2013-08-07 05:16:00,
2013-08-07 01:22:00,62.5,59.5,30.02,SE,146,0.0,0.0,90,0.00,,,0.00,Wunderground v.1.15,2013-08-07 05:22:00,
2013-08-07 01:28:00,62.7,59.4,30.02,SSW,208,1.0,4.0,89,0.00,,,0.00,Wunderground v.1.15,2013-08-07 05:28:00,
2013-08-07 01:34:00,63.0,59.7,30.02,SSW,213,2.0,2.0,89,0.00,,,0.00,Wunderground v.1.15,2013-08-07 05:34:00,
2013-08-07 01:40:00,63.2,59.9,30.02,SW,214,1.0,1.0,89,0.00,,,0.00,Wunderground v.1.15,2013-08-07 05:40:00,
2013-08-07 01:46:00,63.4,60.1,30.02,SW,231,1.0,4.0,89,0.00,,,0.00,Wunderground v.1.15,2013-08-07 05:46:00,
2013-08-07 01:54:00,63.6,60.0,30.02,SW,231,0.0,1.0,88,0.00,,,0.00,Wunderground v.1.15,2013-08-07 05:54:00,
2013-08-07 02:00:00,63.5,59.9,30.02,SW,231,0.0,0.0,88,0.00,,,0.00,Wunderground v.1.15,2013-08-07 06:00:00,
2013-08-07 02:06:00,63.5,60.2,30.02,SW,231,0.0,2.0,89,0.00,,,0.00,Wunderground v.1.15,2013-08-07 06:06:00,
2013-08-07 02:12:00,63.4,60.1,30.02,SW,231,0.0,0.0,89,0.00,,,0.00,Wunderground v.1.15,2013-08-07 06:12:00,
2013-08-07 02:18:00,63.3,60.0,30.02,SW,231,0.0,0.0,89,0.00,,,0.00,Wunderground v.1.15,2013-08-07 06:18:00,
2013-08-07 02:24:00,63.2,59.9,30.02,SW,231,0.0,0.0,89,0.00,,,0.00,Wunderground v.1.15,2013-08-07 06:24:00,
2013-08-07 02:30:00,63.2,59.9,30.02,SW,231,0.0,0.0,89,0.00,,,0.00,Wunderground v.1.15,2013-08-07 06:30:00,
2013-08-07 02:36:00,63.2,59.9,30.02,SW,231,0.0,0.0,89,0.00,,,0.00,Wunderground v.1.15,2013-08-07 06:36:00,
2013-08-07 02:42:00,63.3,60.0,30.02,SW,231,0.0,0.0,89,0.00,,,0.00,Wunderground v.1.15,2013-08-07 06:42:00,
2013-08-07 02:48:00,63.2,59.9,30.02,SW,231,0.0,0.0,89,0.00,,,0.00,Wunderground v.1.15,2013-08-07 06:48:00,
2013-08-07 02:54:00,63.1,59.8,30.02,SW,231,0.0,0.0,89,0.00,,,0.00,Wunderground v.1.15,2013-08-07 06:54:00,
2013-08-07 03:00:00,63.1,60.1,30.02,SW,231,0.0,0.0,90,0.00,,,0.00,Wunderground v.1.15,2013-08-07 07:00:00,
2013-08-07 03:06:00,63.1,60.1,30.02,SW,231,0.0,0.0,90,0.00,,,0.00,Wunderground v.1.15,2013-08-07 07:06:00,
2013-08-07 03:12:00,63.1,60.1,30.02,SW,231,0.0,0.0,90,0.00,,,0.00,Wunderground v.1.15,2013-08-07 07:12:00,
2013-08-07 03:18:00,63.1,60.1,30.02,SW,231,0.0,0.0,90,0.00,,,0.00,Wunderground v.1.15,2013-08-07 07:18:00,
2013-08-07 03:24:00,63.1,60.1,30.02,SW,231,0.0,0.0,90,0.00,,,0.00,Wunderground v.1.15,2013-08-07 07:24:00,
2013-08-07 03:30:00,63.0,60.0,30.02,SW,231,0.0,0.0,90,0.00,,,0.00,Wunderground v.1.15,2013-08-07 07:30:00,
2013-08-07 03:36:00,63.1,60.1,30.02,SW,231,0.0,0.0,90,0.00,,,0.00,Wunderground v.1.15,2013-08-07 07:36:00,
2013-08-07 03:42:00,63.1,60.1,30.01,SW,231,0.0,0.0,90,0.00,,,0.00,Wunderground v.1.15,2013-08-07 07:42:00,
2013-08-07 03:48:00,63.1,60.1,30.02,SW,231,0.0,0.0,90,0.00,,,0.00,Wunderground v.1.15,2013-08-07 07:48:00,
2013-08-07 03:54:00,63.0,60.0,30.02,SW,231,0.0,0.0,90,0.00,,,0.00,Wunderground v.1.15,2013-08-07 07:54:00,
2013-08-07 04:01:00,63.0,60.0,30.02,SW,231,0.0,0.0,90,0.00,,,0.00,Wunderground v.1.15,2013-08-07 08:01:00,
2013-08-07 04:06:00,63.0,60.0,30.02,SW,231,0.0,0.0,90,0.00,,,0.00,Wunderground v.1.15,2013-08-07 08:06:00,
2013-08-07 04:12:00,63.1,60.1,30.02,SW,231,0.0,0.0,90,0.00,,,0.00,Wunderground v.1.15,2013-08-07 08:12:00,
2013-08-07 04:18:00,63.1,60.1,30.02,SW,231,0.0,0.0,90,0.00,,,0.00,Wunderground v.1.15,2013-08-07 08:18:00,
2013-08-07 04:24:00,63.1,60.1,30.01,SW,231,0.0,0.0,90,0.00,,,0.00,Wunderground v.1.15,2013-08-07 08:24:00,
2013-08-07 04:30:00,63.1,60.1,30.02,SW,231,0.0,0.0,90,0.00,,,0.00,Wunderground v.1.15,2013-08-07 08:30:00,
2013-08-07 04:36:00,63.1,60.1,30.02,SW,231,0.0,0.0,90,0.00,,,0.00,Wunderground v.1.15,2013-08-07 08:36:00,
2013-08-07 04:42:00,63.1,60.4,30.01,SW,231,0.0,0.0,91,0.00,,,0.00,Wunderground v.1.15,2013-08-07 08:42:00,
2013-08-07 04:48:00,63.1,60.4,30.01,SW,231,0.0,0.0,91,0.00,,,0.00,Wunderground v.1.15,2013-08-07 08:48:00,
2013-08-07 04:54:00,63.1,60.4,30.01,SW,231,0.0,0.0,91,0.00,,,0.00,Wunderground v.1.15,2013-08-07 08:54:00,
2013-08-07 05:00:00,63.1,60.4,30.01,SW,231,0.0,0.0,91,0.00,,,0.00,Wunderground v.1.15,2013-08-07 09:00:00,
2013-08-07 05:06:00,63.2,60.5,30.01,SW,231,0.0,0.0,91,0.00,,,0.00,Wunderground v.1.15,2013-08-07 09:06:00,
2013-08-07 05:12:00,63.1,60.4,30.01,SW,231,0.0,0.0,91,0.00,,,0.00,Wunderground v.1.15,2013-08-07 09:12:00,
2013-08-07 05:18:00,63.2,60.5,30.00,SW,231,0.0,0.0,91,0.00,,,0.00,Wunderground v.1.15,2013-08-07 09:18:00,
2013-08-07 05:24:00,63.2,60.5,30.00,SW,231,0.0,0.0,91,0.00,,,0.00,Wunderground v.1.15,2013-08-07 09:24:00,
2013-08-07 05:30:00,63.2,60.5,30.00,SW,231,0.0,0.0,91,0.00,,,0.00,Wunderground v.1.15,2013-08-07 09:30:00,
2013-08-07 05:36:00,63.4,60.7,30.00,SW,231,0.0,0.0,91,0.00,,,0.00,Wunderground v.1.15,2013-08-07 09:36:00,
2013-08-07 05:42:00,63.4,60.7,30.00,SW,231,0.0,0.0,91,0.00,,,0.00,Wunderground v.1.15,2013-08-07 09:42:00,
2013-08-07 05:48:00,63.4,60.7,30.00,SW,231,0.0,2.0,91,0.00,,,0.00,Wunderground v.1.15,2013-08-07 09:48:00,
2013-08-07 05:54:00,63.5,60.5,30.00,SW,231,1.0,1.0,90,0.00,,,0.00,Wunderground v.1.15,2013-08-07 09:54:00,
2013-08-07 06:00:00,63.5,60.5,30.01,SW,231,0.0,0.0,90,0.00,,,0.00,Wunderground v.1.15,2013-08-07 10:00:00,
2013-08-07 06:06:00,63.6,60.6,30.01,SW,231,0.0,0.0,90,0.00,,,0.00,Wunderground v.1.15,2013-08-07 10:06:00,
2013-08-07 06:12:00,63.6,60.6,30.01,SW,231,0.0,0.0,90,0.00,,,0.00,Wunderground v.1.15,2013-08-07 10:12:00,
2013-08-07 06:18:00,63.6,60.6,30.01,SW,231,0.0,0.0,90,0.00,,,0.00,Wunderground v.1.15,2013-08-07 10:18:00,
2013-08-07 06:24:00,63.5,60.5,30.01,SW,231,0.0,0.0,90,0.00,,,0.00,Wunderground v.1.15,2013-08-07 10:24:00,
2013-08-07 06:30:00,63.5,60.5,30.01,SW,231,0.0,0.0,90,0.00,,,0.00,Wunderground v.1.15,2013-08-07 10:30:00,
2013-08-07 06:36:00,63.6,60.6,30.01,SW,231,0.0,0.0,90,0.00,,,0.00,Wunderground v.1.15,2013-08-07 10:36:00,
2013-08-07 06:42:00,63.5,60.5,30.01,SW,231,0.0,0.0,90,0.00,,,0.00,Wunderground v.1.15,2013-08-07 10:42:00,
2013-08-07 06:48:00,63.5,60.5,30.01,SW,231,0.0,0.0,90,0.00,,,0.00,Wunderground v.1.15,2013-08-07 10:48:00,
2013-08-07 06:54:00,63.7,60.7,30.01,SW,231,0.0,2.0,90,0.00,,,0.00,Wunderground v.1.15,2013-08-07 10:54:00,
2013-08-07 07:00:00,63.8,60.8,30.01,SW,231,0.0,0.0,90,0.00,,,0.00,Wunderground v.1.15,2013-08-07 11:00:00,
2013-08-07 07:06:00,63.8,61.1,30.00,SW,231,0.0,0.0,91,0.00,,,0.00,Wunderground v.1.15,2013-08-07 11:06:00,
2013-08-07 07:12:00,63.8,60.8,30.00,SW,231,0.0,3.0,90,0.00,,,0.00,Wunderground v.1.15,2013-08-07 11:12:00,
2013-08-07 07:18:00,64.0,61.0,30.00,SW,231,1.0,3.0,90,0.00,,,0.00,Wunderground v.1.15,2013-08-07 11:18:00,
2013-08-07 07:24:00,64.1,61.1,30.00,SW,233,2.0,4.0,90,0.00,,,0.00,Wunderground v.1.15,2013-08-07 11:24:00,
2013-08-07 07:30:00,64.2,61.2,30.00,SW,228,2.0,3.0,90,0.00,,,0.00,Wunderground v.1.15,2013-08-07 11:30:00,
2013-08-07 07:36:00,64.3,61.3,30.00,SW,228,2.0,3.0,90,0.00,,,0.00,Wunderground v.1.15,2013-08-07 11:36:00,
2013-08-07 07:42:00,64.4,61.4,30.00,SW,233,1.0,2.0,90,0.00,,,0.00,Wunderground v.1.15,2013-08-07 11:42:00,
2013-08-07 07:48:00,64.4,61.4,30.00,SW,234,1.0,2.0,90,0.00,,,0.00,Wunderground v.1.15,2013-08-07 11:48:00,
2013-08-07 07:54:00,64.5,61.5,30.00,SW,234,0.0,0.0,90,0.00,,,0.00,Wunderground v.1.15,2013-08-07 11:54:00,
2013-08-07 08:00:00,64.6,61.6,30.00,SW,234,0.0,0.0,90,0.00,,,0.00,Wunderground v.1.15,2013-08-07 12:00:00,
2013-08-07 08:06:00,64.6,61.6,30.00,SW,234,0.0,0.0,90,0.00,,,0.00,Wunderground v.1.15,2013-08-07 12:06:00,
2013-08-07 08:12:00,64.7,61.7,30.00,SW,234,0.0,0.0,90,0.00,,,0.00,Wunderground v.1.15,2013-08-07 12:12:00,
2013-08-07 08:18:00,64.8,61.8,30.00,SW,234,0.0,2.0,90,0.00,,,0.00,Wunderground v.1.15,2013-08-07 12:18:00,
2013-08-07 08:24:00,64.8,61.8,30.01,SW,234,1.0,2.0,90,0.00,,,0.00,Wunderground v.1.15,2013-08-07 12:24:00,
2013-08-07 08:30:00,64.8,61.8,30.00,SW,234,1.0,3.0,90,0.00,,,0.00,Wunderground v.1.15,2013-08-07 12:30:00,
2013-08-07 08:36:00,64.9,61.9,30.01,SW,234,1.0,3.0,90,0.00,,,0.00,Wunderground v.1.15,2013-08-07 12:36:00,
2013-08-07 08:42:00,65.0,62.0,30.01,SW,234,0.0,1.0,90,0.00,,,0.00,Wunderground v.1.15,2013-08-07 12:42:00,
2013-08-07 08:48:00,65.2,62.2,30.01,SW,234,0.0,2.0,90,0.00,,,0.00,Wunderground v.1.15,2013-08-07 12:48:00,
2013-08-07 08:54:00,65.3,62.3,30.01,SW,234,0.0,0.0,90,0.00,,,0.00,Wunderground v.1.15,2013-08-07 12:54:00,
2013-08-07 09:00:00,65.3,62.3,30.00,SW,234,0.0,0.0,90,0.00,,,0.00,Wunderground v.1.15,2013-08-07 13:00:00,
2013-08-07 09:06:00,65.4,62.4,30.00,SW,235,1.0,1.0,90,0.00,,,0.00,Wunderground v.1.15,2013-08-07 13:06:00,
2013-08-07 09:12:00,65.5,62.2,30.00,SW,235,0.0,0.0,89,0.00,,,0.00,Wunderground v.1.15,2013-08-07 13:12:00,
2013-08-07 09:18:00,65.8,62.8,30.00,SW,235,0.0,1.0,90,0.00,,,0.00,Wunderground v.1.15,2013-08-07 13:18:00,
2013-08-07 09:24:00,66.1,62.8,30.00,SSW,205,1.0,3.0,89,0.00,,,0.00,Wunderground v.1.15,2013-08-07 13:24:00,
2013-08-07 09:30:00,66.6,63.3,30.01,SSW,206,1.0,1.0,89,0.00,,,0.00,Wunderground v.1.15,2013-08-07 13:30:00,
2013-08-07 09:36:00,67.0,63.3,30.01,SW,223,1.0,5.0,88,0.00,,,0.00,Wunderground v.1.15,2013-08-07 13:36:00,
2013-08-07 09:42:00,67.2,63.2,30.00,SW,224,1.0,1.0,87,0.00,,,0.00,Wunderground v.1.15,2013-08-07 13:42:00,
2013-08-07 09:48:00,67.2,63.5,30.00,SW,223,0.0,1.0,88,0.00,,,0.00,Wunderground v.1.15,2013-08-07 13:48:00,
2013-08-07 09:54:00,67.4,63.4,30.00,South,178,0.0,2.0,87,0.00,,,0.00,Wunderground v.1.15,2013-08-07 13:54:00,
2013-08-07 10:00:00,67.6,63.6,30.00,South,177,1.0,1.0,87,0.00,,,0.00,Wunderground v.1.15,2013-08-07 14:00:00,
2013-08-07 10:06:00,67.9,63.9,30.01,WSW,254,1.0,3.0,87,0.00,,,0.00,Wunderground v.1.15,2013-08-07 14:06:00,
2013-08-07 10:12:00,67.8,63.8,30.01,SW,227,2.0,3.0,87,0.00,,,0.00,Wunderground v.1.15,2013-08-07 14:12:00,
2013-08-07 10:18:00,67.7,63.7,30.00,SW,228,1.0,3.0,87,0.00,,,0.00,Wunderground v.1.15,2013-08-07 14:18:00,
2013-08-07 10:24:00,67.8,63.8,30.01,SW,227,0.0,3.0,87,0.00,,,0.00,Wunderground v.1.15,2013-08-07 14:24:00,
2013-08-07 10:30:00,67.9,63.9,30.01,SW,227,1.0,1.0,87,0.00,,,0.00,Wunderground v.1.15,2013-08-07 14:30:00,
2013-08-07 10:36:00,68.2,64.2,30.01,South,173,1.0,2.0,87,0.00,,,0.00,Wunderground v.1.15,2013-08-07 14:36:00,
2013-08-07 10:42:00,68.6,64.2,30.01,South,183,1.0,1.0,86,0.00,,,0.00,Wunderground v.1.15,2013-08-07 14:42:00,
2013-08-07 10:48:00,68.8,64.4,30.01,South,184,1.0,3.0,86,0.00,,,0.00,Wunderground v.1.15,2013-08-07 14:48:00,
2013-08-07 10:54:00,68.9,64.5,30.01,South,186,1.0,1.0,86,0.00,,,0.00,Wunderground v.1.15,2013-08-07 14:54:00,
2013-08-07 11:00:00,68.8,64.4,30.01,South,176,2.0,4.0,86,0.00,,,0.00,Wunderground v.1.15,2013-08-07 15:00:00,
2013-08-07 11:06:00,69.1,64.7,30.00,SW,219,3.0,7.0,86,0.00,,,0.00,Wunderground v.1.15,2013-08-07 15:06:00,
2013-08-07 11:12:00,69.5,65.1,30.00,SSW,212,4.0,4.0,86,0.00,,,0.00,Wunderground v.1.15,2013-08-07 15:12:00,
2013-08-07 11:18:00,71.1,66.0,30.01,SW,225,3.0,4.0,84,0.00,,,0.00,Wunderground v.1.15,2013-08-07 15:18:00,
2013-08-07 11:24:00,71.0,65.9,30.01,SW,226,3.0,4.0,84,0.00,,,0.00,Wunderground v.1.15,2013-08-07 15:24:00,
2013-08-07 11:30:00,70.3,65.6,30.00,SW,229,2.0,2.0,85,0.00,,,0.00,Wunderground v.1.15,2013-08-07 15:30:00,
2013-08-07 11:36:00,70.3,65.6,30.01,SW,230,2.0,5.0,85,0.00,,,0.00,Wunderground v.1.15,2013-08-07 15:36:00,
2013-08-07 11:42:00,70.4,65.7,30.00,SW,225,1.0,2.0,85,0.00,,,0.00,Wunderground v.1.15,2013-08-07 15:42:00,
2013-08-07 11:48:00,70.3,65.6,30.01,SW,224,1.0,2.0,85,0.00,,,0.00,Wunderground v.1.15,2013-08-07 15:48:00,
2013-08-07 11:54:00,70.1,65.4,30.01,SW,223,0.0,1.0,85,0.00,,,0.00,Wunderground v.1.15,2013-08-07 15:54:00,
2013-08-07 12:00:00,70.3,65.6,30.01,South,190,1.0,8.0,85,0.00,,,0.00,Wunderground v.1.15,2013-08-07 16:00:00,
2013-08-07 12:06:00,71.2,66.5,30.01,South,186,3.0,8.0,85,0.00,,,0.00,Wunderground v.1.15,2013-08-07 16:06:00,
2013-08-07 12:12:00,71.3,66.2,30.01,SSE,153,2.0,4.0,84,0.00,,,0.00,Wunderground v.1.15,2013-08-07 16:12:00,
2013-08-07 12:18:00,71.7,66.6,30.01,South,173,3.0,6.0,84,0.00,,,0.00,Wunderground v.1.15,2013-08-07 16:18:00,
2013-08-07 12:24:00,71.5,66.4,30.01,South,175,5.0,8.0,84,0.00,,,0.00,Wunderground v.1.15,2013-08-07 16:24:00,
2013-08-07 12:30:00,71.5,66.4,30.00,SSW,198,7.0,7.0,84,0.00,,,0.00,Wunderground v.1.15,2013-08-07 16:30:00,
2013-08-07 12:36:00,71.8,66.7,30.00,South,186,4.0,7.0,84,0.00,,,0.00,Wunderground v.1.15,2013-08-07 16:36:00,
2013-08-07 12:42:00,72.7,67.2,29.99,SSW,198,2.0,9.0,83,0.00,,,0.00,Wunderground v.1.15,2013-08-07 16:42:00,
2013-08-07 12:48:00,72.9,67.1,30.00,SSW,195,4.0,9.0,82,0.00,,,0.00,Wunderground v.1.15,2013-08-07 16:48:00,
2013-08-07 12:54:00,72.9,67.1,30.00,WSW,242,6.0,10.0,82,0.00,,,0.00,Wunderground v.1.15,2013-08-07 16:54:00,
2013-08-07 13:00:00,72.4,66.9,30.00,South,190,5.0,6.0,83,0.00,,,0.00,Wunderground v.1.15,2013-08-07 17:00:00,
2013-08-07 13:06:00,72.0,66.6,30.00,SW,224,3.0,6.0,83,0.00,,,0.00,Wunderground v.1.15,2013-08-07 17:06:00,
2013-08-07 13:12:00,72.1,67.0,30.00,SSW,200,1.0,2.0,84,0.00,,,0.00,Wunderground v.1.15,2013-08-07 17:12:00,
2013-08-07 13:18:00,72.8,67.3,30.00,SSW,209,3.0,4.0,83,0.00,,,0.00,Wunderground v.1.15,2013-08-07 17:18:00,
2013-08-07 13:24:00,72.8,67.3,29.99,South,185,4.0,10.0,83,0.00,,,0.00,Wunderground v.1.15,2013-08-07 17:24:00,
2013-08-07 13:30:00,73.6,67.8,29.99,SSW,205,4.0,4.0,82,0.00,,,0.00,Wunderground v.1.15,2013-08-07 17:30:00,
2013-08-07 13:36:00,75.1,68.9,29.99,South,170,2.0,5.0,81,0.00,,,0.00,Wunderground v.1.15,2013-08-07 17:36:00,
2013-08-07 13:42:00,75.0,68.4,29.99,SSW,206,2.0,7.0,80,0.00,,,0.00,Wunderground v.1.15,2013-08-07 17:42:00,
2013-08-07 13:48:00,74.6,68.4,29.99,SSW,196,5.0,7.0,81,0.00,,,0.00,Wunderground v.1.15,2013-08-07 17:48:00,
2013-08-07 13:54:00,74.0,68.2,29.99,SW,217,3.0,4.0,82,0.00,,,0.00,Wunderground v.1.15,2013-08-07 17:54:00,
2013-08-07 14:00:00,74.4,68.2,29.99,South,191,1.0,2.0,81,0.00,,,0.00,Wunderground v.1.15,2013-08-07 18:00:00,
2013-08-07 14:06:00,74.4,68.2,29.99,South,188,1.0,3.0,81,0.00,,,0.00,Wunderground v.1.15,2013-08-07 18:06:00,
2013-08-07 14:12:00,74.7,68.5,29.99,ESE,123,2.0,9.0,81,0.00,,,0.00,Wunderground v.1.15,2013-08-07 18:12:00,
2013-08-07 14:18:00,74.7,68.5,29.99,SE,127,3.0,9.0,81,0.00,,,0.00,Wunderground v.1.15,2013-08-07 18:18:00,
2013-08-07 14:24:00,74.8,68.6,29.99,South,175,2.0,4.0,81,0.00,,,0.00,Wunderground v.1.15,2013-08-07 18:24:00,
2013-08-07 14:30:00,75.1,68.5,29.99,South,177,1.0,1.0,80,0.00,,,0.00,Wunderground v.1.15,2013-08-07 18:30:00,
2013-08-07 14:36:00,74.8,68.6,29.98,South,174,1.0,1.0,81,0.00,,,0.00,Wunderground v.1.15,2013-08-07 18:36:00,
2013-08-07 14:42:00,74.9,68.7,29.98,SE,128,1.0,4.0,81,0.00,,,0.00,Wunderground v.1.15,2013-08-07 18:42:00,
2013-08-07 14:48:00,74.8,68.6,29.98,SE,124,2.0,4.0,81,0.00,,,0.00,Wunderground v.1.15,2013-08-07 18:48:00,
2013-08-07 14:54:00,75.9,69.3,29.98,South,176,3.0,5.0,80,0.00,,,0.00,Wunderground v.1.15,2013-08-07 18:54:00,
2013-08-07 15:00:00,76.1,69.1,29.98,SSE,161,3.0,3.0,79,0.00,,,0.00,Wunderground v.1.15,2013-08-07 19:00:00,
2013-08-07 15:06:00,75.4,68.8,29.98,South,169,2.0,3.0,80,0.00,,,0.00,Wunderground v.1.15,2013-08-07 19:06:00,
2013-08-07 15:12:00,75.9,68.9,29.98,SE,133,2.0,5.0,79,0.00,,,0.00,Wunderground v.1.15,2013-08-07 19:12:00,
2013-08-07 15:18:00,75.8,68.8,29.97,ESE,122,4.0,5.0,79,0.00,,,0.00,Wunderground v.1.15,2013-08-07 19:18:00,
2013-08-07 15:24:00,75.9,68.9,29.98,South,171,2.0,3.0,79,0.00,,,0.00,Wunderground v.1.15,2013-08-07 19:24:00,
2013-08-07 15:30:00,75.6,69.0,29.97,ESE,117,1.0,1.0,80,0.00,,,0.00,Wunderground v.1.15,2013-08-07 19:30:00,
2013-08-07 15:36:00,75.0,68.8,29.97,ESE,114,2.0,4.0,81,0.00,,,0.00,Wunderground v.1.15,2013-08-07 19:36:00,
2013-08-07 15:42:00,75.2,68.6,29.97,ESE,118,2.0,4.0,80,0.00,,,0.00,Wunderground v.1.15,2013-08-07 19:42:00,
2013-08-07 15:48:00,76.4,69.4,29.97,East,90,2.0,4.0,79,0.00,,,0.00,Wunderground v.1.15,2013-08-07 19:48:00,
2013-08-07 15:54:00,75.8,69.2,29.96,ESE,122,2.0,3.0,80,0.00,,,0.00,Wunderground v.1.15,2013-08-07 19:54:00,
2013-08-07 16:00:00,76.9,70.3,29.96,SE,124,1.0,1.0,80,0.00,,,0.00,Wunderground v.1.15,2013-08-07 20:00:00,
2013-08-07 16:06:00,77.3,69.9,29.95,SE,124,0.0,1.0,78,0.00,,,0.00,Wunderground v.1.15,2013-08-07 20:06:00,
2013-08-07 16:12:00,77.0,70.0,29.95,SSE,148,0.0,0.0,79,0.00,,,0.00,Wunderground v.1.15,2013-08-07 20:12:00,
2013-08-07 16:18:00,76.9,69.5,29.95,SE,142,1.0,1.0,78,0.00,,,0.00,Wunderground v.1.15,2013-08-07 20:18:00,
2013-08-07 16:24:00,76.6,69.2,29.95,SE,136,1.0,3.0,78,0.00,,,0.00,Wunderground v.1.15,2013-08-07 20:24:00,
2013-08-07 16:30:00,76.4,69.4,29.96,SSW,200,1.0,1.0,79,0.00,,,0.00,Wunderground v.1.15,2013-08-07 20:30:00,
2013-08-07 16:36:00,76.2,69.6,29.96,SSW,198,1.0,1.0,80,0.00,,,0.00,Wunderground v.1.15,2013-08-07 20:36:00,
2013-08-07 16:42:00,75.9,69.3,29.95,SSW,198,0.0,0.0,80,0.00,,,0.00,Wunderground v.1.15,2013-08-07 20:42:00,
2013-08-07 16:48:00,76.1,69.5,29.95,SSW,198,0.0,0.0,80,0.00,,,0.00,Wunderground v.1.15,2013-08-07 20:48:00,
2013-08-07 16:54:00,76.1,69.5,29.95,SSW,198,0.0,0.0,80,0.00,,,0.00,Wunderground v.1.15,2013-08-07 20:54:00,
2013-08-07 17:00:00,75.8,69.6,29.95,SSW,198,0.0,0.0,81,0.00,,,0.00,Wunderground v.1.15,2013-08-07 21:00:00,
2013-08-07 17:06:00,75.8,69.6,29.95,SSW,198,0.0,1.0,81,0.00,,,0.00,Wunderground v.1.15,2013-08-07 21:06:00,
2013-08-07 17:12:00,75.9,69.3,29.96,SSW,198,0.0,0.0,80,0.00,,,0.00,Wunderground v.1.15,2013-08-07 21:12:00,
2013-08-07 17:18:00,76.2,69.6,29.95,SSW,198,0.0,0.0,80,0.00,,,0.00,Wunderground v.1.15,2013-08-07 21:18:00,
2013-08-07 17:24:00,76.2,69.6,29.95,SSW,198,0.0,1.0,80,0.00,,,0.00,Wunderground v.1.15,2013-08-07 21:24:00,
2013-08-07 17:30:00,76.2,69.9,29.95,SSW,198,0.0,3.0,81,0.00,,,0.00,Wunderground v.1.15,2013-08-07 21:30:00,
2013-08-07 17:36:00,76.2,69.9,29.95,SSW,198,0.0,3.0,81,0.00,,,0.00,Wunderground v.1.15,2013-08-07 21:36:00,
2013-08-07 17:42:00,76.2,69.6,29.95,SW,217,0.0,0.0,80,0.00,,,0.00,Wunderground v.1.15,2013-08-07 21:42:00,
2013-08-07 17:48:00,76.0,69.7,29.94,SW,217,0.0,1.0,81,0.00,,,0.00,Wunderground v.1.15,2013-08-07 21:48:00,
2013-08-07 17:54:00,75.8,69.9,29.94,SW,216,0.0,0.0,82,0.00,,,0.00,Wunderground v.1.15,2013-08-07 21:54:00,
2013-08-07 18:00:00,75.4,69.5,29.94,SW,216,0.0,0.0,82,0.00,,,0.00,Wunderground v.1.15,2013-08-07 22:00:00,
2013-08-07 18:06:00,74.7,69.5,29.94,SW,216,0.0,0.0,84,0.00,,,0.00,Wunderground v.1.15,2013-08-07 22:06:00,
2013-08-07 18:12:00,74.4,68.9,29.94,SW,216,0.0,0.0,83,0.00,,,0.00,Wunderground v.1.15,2013-08-07 22:12:00,
2013-08-07 18:18:00,74.0,68.9,29.94,SW,216,0.0,0.0,84,0.00,,,0.00,Wunderground v.1.15,2013-08-07 22:18:00,
2013-08-07 18:24:00,73.4,68.6,29.94,SW,217,0.0,1.0,85,0.00,,,0.00,Wunderground v.1.15,2013-08-07 22:24:00,
2013-08-07 18:30:00,72.6,68.2,29.95,SW,217,0.0,0.0,86,0.00,,,0.00,Wunderground v.1.15,2013-08-07 22:30:00,
2013-08-07 18:36:00,71.9,67.5,29.94,SW,217,0.0,0.0,86,0.00,,,0.00,Wunderground v.1.15,2013-08-07 22:36:00,
2013-08-07 18:42:00,71.4,67.3,29.95,SW,217,0.0,0.0,87,0.00,,,0.00,Wunderground v.1.15,2013-08-07 22:42:00,
2013-08-07 18:48:00,71.3,67.2,29.95,SW,227,1.0,3.0,87,0.00,,,0.00,Wunderground v.1.15,2013-08-07 22:48:00,
2013-08-07 18:54:00,71.0,66.9,29.95,ESE,123,1.0,4.0,87,0.00,,,0.00,Wunderground v.1.15,2013-08-07 22:54:00,
2013-08-07 19:00:00,70.6,66.9,29.95,East,101,1.0,1.0,88,0.00,,,0.00,Wunderground v.1.15,2013-08-07 23:00:00,
2013-08-07 19:06:00,70.4,66.7,29.94,NNE,16,2.0,4.0,88,0.00,,,0.00,Wunderground v.1.15,2013-08-07 23:06:00,
2013-08-07 19:12:00,70.2,66.8,29.95,South,176,3.0,6.0,89,0.00,,,0.00,Wunderground v.1.15,2013-08-07 23:12:00,
2013-08-07 19:18:00,69.9,66.5,29.96,West,268,1.0,6.0,89,0.00,,,0.00,Wunderground v.1.15,2013-08-07 23:18:00,
2013-08-07 19:24:00,69.8,66.4,29.98,West,275,1.0,4.0,89,0.00,,,0.00,Wunderground v.1.15,2013-08-07 23:24:00,
2013-08-07 19:30:00,69.5,66.4,29.99,North,5,5.0,12.0,90,0.00,,,0.00,Wunderground v.1.15,2013-08-07 23:30:00,
2013-08-07 19:36:00,68.6,65.9,30.00,North,5,12.0,19.0,91,0.00,,,0.00,Wunderground v.1.15,2013-08-07 23:36:00,
2013-08-07 19:42:00,65.8,63.1,30.00,North,355,19.0,19.0,91,0.00,,,0.01,Wunderground v.1.15,2013-08-07 23:42:00,
2013-08-07 19:48:00,65.7,63.3,30.02,NW,321,17.0,19.0,92,0.00,,,0.01,Wunderground v.1.15,2013-08-07 23:48:00,
2013-08-07 19:54:00,66.2,64.1,30.02,ENE,57,10.0,14.0,93,0.00,,,0.01,Wunderground v.1.15,2013-08-07 23:54:00,
2013-08-07 20:00:00,65.9,63.8,30.00,East,80,10.0,13.0,93,0.00,,,0.01,Wunderground v.1.15,2013-08-08 00:00:00,
2013-08-07 20:06:00,65.4,63.3,30.00,ENE,66,8.0,13.0,93,0.00,,,0.01,Wunderground v.1.15,2013-08-08 00:06:00,
2013-08-07 20:12:00,65.5,63.7,30.02,WSW,248,4.0,11.0,94,0.00,,,0.02,Wunderground v.1.15,2013-08-08 00:12:00,
2013-08-07 20:18:00,65.7,63.9,30.02,SW,219,6.0,11.0,94,0.00,,,0.02,Wunderground v.1.15,2013-08-08 00:18:00,
2013-08-07 20:24:00,66.1,64.6,30.01,South,177,5.0,7.0,95,0.00,,,0.02,Wunderground v.1.15,2013-08-08 00:24:00,
2013-08-07 20:30:00,66.3,64.8,30.00,South,178,3.0,3.0,95,0.00,,,0.02,Wunderground v.1.15,2013-08-08 00:30:00,
2013-08-07 20:36:00,66.2,64.7,30.00,South,184,3.0,4.0,95,0.00,,,0.02,Wunderground v.1.15,2013-08-08 00:36:00,
2013-08-07 20:42:00,66.2,64.7,29.99,SSE,152,3.0,3.0,95,0.00,,,0.02,Wunderground v.1.15,2013-08-08 00:42:00,
2013-08-07 20:48:00,65.5,63.7,29.98,South,190,4.0,5.0,94,0.00,,,0.02,Wunderground v.1.15,2013-08-08 00:48:00,
2013-08-07 20:54:00,65.0,63.2,29.99,SW,214,3.0,4.0,94,0.00,,,0.02,Wunderground v.1.15,2013-08-08 00:54:00,
2013-08-07 21:00:00,64.8,63.0,29.99,SSW,213,1.0,1.0,94,0.00,,,0.02,Wunderground v.1.15,2013-08-08 01:00:00,
2013-08-07 21:06:00,64.7,62.9,30.00,SSW,213,0.0,1.0,94,0.00,,,0.02,Wunderground v.1.15,2013-08-08 01:06:00,
2013-08-07 21:12:00,64.6,62.8,29.99,SW,214,0.0,0.0,94,0.00,,,0.02,Wunderground v.1.15,2013-08-08 01:12:00,
2013-08-07 21:18:00,64.6,63.1,30.00,SW,214,0.0,1.0,95,0.00,,,0.02,Wunderground v.1.15,2013-08-08 01:18:00,
2013-08-07 21:24:00,64.6,63.1,30.00,SW,225,1.0,4.0,95,0.00,,,0.02,Wunderground v.1.15,2013-08-08 01:24:00,
2013-08-07 21:30:00,64.7,63.2,30.01,SSW,211,4.0,8.0,95,0.00,,,0.03,Wunderground v.1.15,2013-08-08 01:30:00,
2013-08-07 21:36:00,64.7,63.2,30.01,SSW,197,5.0,8.0,95,0.00,,,0.03,Wunderground v.1.15,2013-08-08 01:36:00,
2013-08-07 21:42:00,64.5,63.0,30.01,SSW,209,4.0,5.0,95,0.00,,,0.03,Wunderground v.1.15,2013-08-08 01:42:00,
2013-08-07 21:48:00,64.4,62.9,30.01,SW,225,4.0,7.0,95,0.00,,,0.03,Wunderground v.1.15,2013-08-08 01:48:00,
2013-08-07 21:54:00,64.2,62.7,30.01,SSW,209,5.0,5.0,95,0.00,,,0.03,Wunderground v.1.15,2013-08-08 01:54:00,
2013-08-07 22:00:00,64.0,62.5,30.01,SW,234,4.0,4.0,95,0.00,,,0.03,Wunderground v.1.15,2013-08-08 02:00:00,
2013-08-07 22:06:00,63.9,62.4,30.01,SW,234,2.0,4.0,95,0.00,,,0.03,Wunderground v.1.15,2013-08-08 02:06:00,
2013-08-07 22:12:00,63.8,62.3,30.00,SW,233,1.0,2.0,95,0.00,,,0.03,Wunderground v.1.15,2013-08-08 02:12:00,
2013-08-07 22:18:00,63.7,62.2,30.00,SW,233,1.0,2.0,95,0.00,,,0.04,Wunderground v.1.15,2013-08-08 02:18:00,
2013-08-07 22:24:00,63.7,62.2,30.00,SW,233,1.0,1.0,95,0.00,,,0.04,Wunderground v.1.15,2013-08-08 02:24:00,
2013-08-07 22:30:00,63.6,62.1,30.00,SW,233,1.0,2.0,95,0.00,,,0.04,Wunderground v.1.15,2013-08-08 02:30:00,
2013-08-07 22:36:00,63.4,61.9,30.00,SW,233,1.0,2.0,95,0.00,,,0.04,Wunderground v.1.15,2013-08-08 02:36:00,
2013-08-07 22:42:00,63.2,61.7,30.00,SW,233,0.0,0.0,95,0.00,,,0.04,Wunderground v.1.15,2013-08-08 02:42:00,
2013-08-07 22:48:00,63.2,61.7,29.99,SW,233,0.0,0.0,95,0.00,,,0.04,Wunderground v.1.15,2013-08-08 02:48:00,
2013-08-07 22:54:00,63.1,61.6,29.99,SW,233,0.0,0.0,95,0.00,,,0.04,Wunderground v.1.15,2013-08-08 02:54:00,
2013-08-07 23:00:00,63.2,61.7,29.99,SW,233,0.0,0.0,95,0.00,,,0.04,Wunderground v.1.15,2013-08-08 03:00:00,
2013-08-07 23:06:00,63.2,62.0,29.99,SW,233,0.0,0.0,96,0.00,,,0.04,Wunderground v.1.15,2013-08-08 03:06:00,
2013-08-07 23:12:00,63.1,61.9,29.98,SW,233,0.0,0.0,96,0.00,,,0.04,Wunderground v.1.15,2013-08-08 03:12:00,
2013-08-07 23:18:00,62.8,61.6,29.98,SW,232,0.0,0.0,96,0.00,,,0.04,Wunderground v.1.15,2013-08-08 03:18:00,
2013-08-07 23:20:00,62.7,61.5,29.98,SW,232,0.0,0.0,96,0.00,,,0.04,Wunderground v.1.15,2013-08-08 03:20:00,
2013-08-07 23:26:00,62.5,61.0,29.98,SW,233,0.0,0.0,95,0.00,,,0.04,Wunderground v.1.15,2013-08-08 03:26:00,
2013-08-07 23:32:00,62.5,61.3,29.98,SW,233,0.0,0.0,96,0.00,,,0.04,Wunderground v.1.15,2013-08-08 03:32:00,
2013-08-07 23:38:00,62.2,61.0,29.98,SW,232,0.0,0.0,96,0.00,,,0.04,Wunderground v.1.15,2013-08-08 03:38:00,
2013-08-07 23:44:00,62.0,60.8,29.98,SW,233,0.0,2.0,96,0.00,,,0.04,Wunderground v.1.15,2013-08-08 03:44:00,
2013-08-07 23:50:00,62.0,60.8,29.98,SW,233,0.0,0.0,96,0.00,,,0.04,Wunderground v.1.15,2013-08-08 03:50:00,
2013-08-07 23:56:00,62.0,60.8,29.98,SW,232,0.0,0.0,96,0.00,,,0.04,Wunderground v.1.15,2013-08-08 03:56:00,